#timestamp,LO_Frequency,Hit,StdDev 
1641366015.1,286046996.6,Y
1641366035.9,286047000.7,P
1641366055.7,286047000.3,N
1641366075.5,286047000.8,N
1641366095.4,286047000.8,N
1641366115.2,286046999.2,N
1641366135.0,286046997.0,N
1641366135.9,286046997.0,N
1641366155.8,286046997.8,N
1641366175.6,286046996.8,N
1641366195.4,286046999.6,N
1641366215.3,286046998.5,N
1641366235.1,286047000.7,N
1641366236.0,286047000.7,N
1641366255.8,286046998.8,N
1641366275.7,286046998.9,N
1641366295.5,286046999.6,N
1641366315.3,286046999.1,N
1641366335.2,286046999.4,N
1641366355.9,286046998.3,N
1641366375.7,286046999.4,N
1641366395.6,286046998.7,N
1641366415.4,286046998.6,N
1641366435.2,286046996.7,N
1641366455.1,286046996.6,N
1641366456.0,286046996.6,N
1641366475.8,286046996.6,N
1641366495.6,286046997.8,N
1641366515.5,286046996.1,N
1641366535.3,286046996.1,N
1641366555.1,286046996.1,N
1641366575.9,286046996.0,N
1641366595.7,286046996.1,N
1641366615.5,286046993.6,Y
1641366635.4,286046997.2,P
1641366655.2,286046995.8,P
1641366675.0,286046993.7,P
1641366675.9,286046993.7,Y
1641366695.8,286046996.5,P
1641366715.6,286046996.7,P
1641366735.4,286046999.0,P
1641366755.3,286046998.9,N
1641366775.1,286046998.9,N
1641366776.0,286046998.9,N
1641366795.8,286046998.2,N
1641366815.7,286046996.6,N
1641366835.5,286046998.6,N
1641366855.3,286046998.3,N
1641366875.2,286046997.7,N
1641366895.9,286046995.3,Y
1641366915.7,286046996.5,P
1641366935.6,286046999.4,N
1641366955.4,286046998.7,N
1641366975.2,286047000.8,N
1641366995.1,286046998.8,N
1641366996.0,286046998.8,N
1641367015.8,286046998.5,N
1641367035.6,286047000.8,N
1641367055.5,286047000.5,N
1641367075.3,286046998.4,N
1641367095.1,286046996.8,N
1641367115.9,286046997.0,N
1641367135.7,286046995.1,Y
1641367155.5,286046999.6,P
1641367175.4,286046997.3,P
1641367195.2,286046996.8,P
1641367215.0,286046996.5,Y
1641367215.9,286046996.5,P
1641367235.8,286047002.8,P
1641367255.6,286047000.2,N
1641367275.4,286047000.5,N
1641367295.3,286046999.9,N
1641367315.1,286047000.5,N
1641367316.0,286047000.5,N
1641367335.8,286047000.5,N
1641367355.7,286046998.7,N
1641367375.5,286046996.5,N
1641367395.3,286046999.1,N
1641367415.2,286047000.5,N
1641367435.9,286047002.7,N
1641367455.7,286047002.8,N
1641367475.6,286047000.1,N
1641367495.4,286046999.8,N
1641367515.2,286047000.3,N
1641367535.1,286046998.8,N
1641367536.0,286046998.8,N
1641367555.8,286047000.6,N
1641367575.6,286047000.5,N
1641367595.5,286047000.2,N
1641367615.3,286046998.4,N
1641367635.1,286046998.2,N
1641367655.9,286046998.7,N
1641367675.7,286046998.5,N
1641367695.5,286047001.8,N
1641367715.3,286047002.1,N
1641367735.2,286047002.2,N
1641367755.0,286047001.6,N
1641367755.9,286047001.6,N
1641367775.8,286047001.8,N
1641367795.6,286047001.7,N
1641367815.4,286047001.9,N
1641367835.2,286047002.2,N
1641367855.1,286047001.7,N
1641367856.0,286047001.7,N
1641367875.8,286047002.5,N
1641367895.7,286047000.9,N
1641367915.5,286047002.4,N
1641367935.3,286047000.2,N
1641367955.1,286047002.3,N
1641367975.9,286047002.4,N
1641367995.7,286047002.1,N
1641368015.5,286047001.8,N
1641368035.4,286047002.0,N
1641368055.2,286047002.2,N
1641368075.0,286047001.5,N
1641368076.0,286047001.5,N
1641368095.8,286047001.9,N
1641368115.6,286047002.4,N
1641368135.4,286047000.4,N
1641368155.3,286047000.9,N
1641368175.1,286046998.2,N
1641368195.8,286047000.7,N
1641368215.7,286047000.4,N
1641368235.5,286047000.6,N
1641368255.3,286047000.4,N
1641368275.2,286046999.9,N
1641368295.0,286047002.3,N
1641368295.9,286047002.3,N
1641368315.7,286047002.3,N
1641368335.6,286046999.7,N
1641368355.4,286046999.9,N
1641368375.2,286047001.8,N
1641368395.1,286047000.3,N
1641368396.0,286047000.3,N
1641368415.8,286047000.1,N
1641368435.6,286047001.3,N
1641368455.5,286047003.9,Y
1641368475.3,286047004.3,P
1641368495.1,286047002.0,N
1641368515.9,286047002.0,N
1641368535.7,286047003.8,Y
1641368555.5,286046998.2,P
1641368575.4,286046998.7,N
1641368595.2,286046998.2,N
1641368615.0,286047000.2,N
1641368615.9,286047000.2,N
1641368635.8,286047000.7,N
1641368655.6,286046998.5,N
1641368675.4,286047000.6,N
1641368695.3,286046998.3,N
1641368715.1,286047000.4,N
1641368735.8,286047000.2,N
1641368755.7,286047000.9,N
1641368775.5,286047000.2,N
1641368795.3,286047000.0,N
1641368815.2,286046998.8,N
1641368835.0,286047002.8,N
1641368835.9,286047002.8,N
1641368855.7,286047002.9,N
1641368875.6,286047004.1,N
1641368895.4,286046999.8,N
1641368915.2,286047002.1,N
1641368935.1,286047004.2,N
1641368936.0,286047004.2,N
1641368955.8,286047001.5,N
1641368975.6,286047002.5,N
1641368995.5,286047001.9,N
1641369015.3,286047002.9,N
1641369035.1,286047005.6,Y
1641369055.9,286047001.5,P
1641369075.7,286047001.5,P
1641369125.6,286047005.9,E
1641369135.5,286047001.3,N
1641369155.3,286046999.0,P
1641369175.2,286046998.3,N
1641369195.9,286047000.2,N
1641369215.7,286046998.6,N
1641369235.6,286046999.6,N
1641369255.4,286046996.5,Y
1641369275.2,286047000.8,P
1641369295.1,286046999.3,N
1641369296.0,286046999.3,N
1641369315.8,286046998.9,N
1641369335.6,286047001.1,N
1641369355.5,286047000.3,N
1641369375.3,286047000.5,N
1641369395.1,286047002.1,N
1641369415.9,286047002.3,N
1641369435.7,286047002.2,N
1641369455.5,286047001.9,N
1641369475.4,286047000.4,N
1641369495.2,286047002.4,N
1641369515.0,286047002.1,N
1641369515.9,286047002.1,N
1641369535.8,286047002.0,N
1641369555.6,286047003.7,Y
1641369575.4,286047002.0,P
1641369595.3,286047004.3,P
